Theta_e
335 338 334 330 330 327 320 319 300 311 306 299 298 300 300 307 306 306 306 307 305 308 309 309 309 308 306 307 308 308 309 305 307 301 304 321 332 332 338 336 338 338 338 345 348 348 349 348 349 350 351 351 350 350 350 351 351 350 350 349 349 350 349 349 348 348 349 348 349 349 348 348 348 348 348 349 348 348 348 348 348 347 348 347 347 347 348 347 347 347 346 345 342 340 339 339 338
334 331 331 331 327 321 315 317 303 301 303 299 300 301 303 304 305 305 304 305 306 307 309 309 310 310 310 310 310 310 309 311 312 311 318 325 330 331 341 336 336 336 338 345 347 346 347 349 347 349 351 350 350 351 351 351 351 350 349 349 349 349 348 349 348 348 348 349 349 349 349 348 348 348 347 348 347 347 347 347 347 347 347 346 347 347 347 346 346 345 344 342 340 339 338 337 336
332 329 327 327 322 317 313 313 300 300 298 296 299 301 304 302 303 305 306 307 308 308 309 309 310 309 309 309 306 307 305 314 313 314 315 325 321 328 338 338 334 338 338 344 346 346 347 347 345 349 350 350 351 351 351 351 351 350 349 349 348 348 348 348 348 348 348 349 349 348 348 348 348 347 347 346 346 346 346 346 346 347 346 346 346 346 345 345 345 343 341 341 340 338 337 335 335
333 331 324 323 314 318 308 308 305 300 297 298 297 302 303 303 304 305 307 309 309 309 308 308 307 311 308 306 308 312 309 311 314 314 313 321 330 332 336 337 337 337 339 344 347 346 346 346 344 349 351 350 351 351 351 351 350 350 349 348 348 348 348 349 348 348 348 349 348 348 348 347 347 347 347 346 345 345 344 345 345 346 345 346 345 345 344 344 343 341 339 339 338 336 335 334 334
332 327 326 322 313 309 309 305 302 301 296 300 297 302 303 304 305 306 307 309 310 309 308 308 307 311 312 309 310 305 308 313 314 317 317 326 330 334 334 338 334 336 339 342 346 346 346 344 344 346 351 351 350 351 351 351 350 350 349 348 348 347 348 348 349 348 348 348 347 347 347 347 347 346 346 345 344 344 344 344 344 344 344 344 344 343 343 342 341 339 338 337 336 335 333 332 332
329 325 327 322 310 316 309 300 301 300 303 304 299 302 304 306 305 307 307 309 310 309 309 308 307 308 307 309 312 309 315 308 316 316 320 328 330 335 335 337 330 336 339 342 345 345 346 341 345 346 350 350 350 351 350 351 350 349 349 348 348 348 348 348 348 348 348 348 347 347 347 346 346 346 344 343 343 343 343 342 341 342 343 342 343 342 341 341 339 337 337 336 335 333 332 330 329
325 320 316 317 313 312 301 301 300 301 303 304 302 303 305 306 307 307 308 308 309 309 309 307 309 308 305 310 312 314 316 320 314 324 333 330 333 334 336 332 331 335 339 340 344 345 350 341 345 348 349 349 350 350 351 350 349 349 349 348 348 348 348 349 348 348 348 347 347 346 346 346 345 344 343 342 341 340 340 340 339 340 339 339 339 339 339 339 338 336 335 335 333 331 329 328 327
327 318 316 306 307 305 301 302 301 302 303 305 305 304 305 306 307 307 307 306 306 306 307 309 308 305 306 310 306 316 318 316 324 325 326 326 333 337 337 332 331 334 337 340 343 344 342 340 344 346 348 350 350 350 351 350 350 349 349 348 348 348 348 348 348 348 347 347 346 346 346 345 345 344 342 341 339 338 337 338 339 339 338 338 337 337 337 337 336 335 333 333 331 329 327 327 325
320 315 318 309 302 307 300 299 301 305 304 305 305 307 309 308 308 307 306 308 308 309 308 309 308 304 307 308 308 315 316 319 321 322 324 328 331 337 335 333 331 333 337 339 342 344 348 339 343 346 347 349 350 350 350 350 349 349 349 348 348 348 348 348 348 347 347 346 346 346 345 345 344 343 342 341 339 337 337 337 338 338 337 337 336 335 335 334 334 333 332 330 328 326 326 325 324
316 314 308 306 307 299 301 302 300 303 304 305 305 305 306 307 307 308 307 306 308 308 309 309 309 305 309 306 309 313 318 319 319 321 321 325 331 334 334 335 334 336 338 338 342 343 346 338 338 342 344 347 349 349 350 349 348 349 348 348 348 349 348 348 347 347 347 346 346 345 345 344 343 342 341 340 339 338 337 337 337 338 336 335 335 334 334 332 332 332 330 328 326 325 324 323 323
310 311 314 304 301 300 300 300 302 304 304 306 307 308 308 309 307 307 307 307 309 307 308 308 305 306 307 307 310 324 319 318 315 316 321 323 332 332 333 336 336 338 336 340 340 341 342 345 334 338 341 343 346 348 348 348 349 349 348 348 347 348 348 347 347 346 346 346 346 345 344 343 343 341 340 339 338 338 336 336 336 336 334 333 332 332 332 331 331 330 329 327 325 324 324 322 322
310 307 309 301 301 300 300 300 301 302 305 305 304 308 309 308 307 306 307 306 308 307 308 308 306 309 306 307 311 318 317 316 317 323 322 326 327 332 334 336 337 338 339 339 340 340 340 343 343 336 336 338 342 344 345 346 347 348 347 348 348 347 347 347 347 346 346 346 345 344 344 343 342 341 340 339 338 336 334 333 333 334 333 332 332 331 331 330 329 329 328 325 324 324 323 322 321
309 312 305 302 301 302 301 301 301 303 303 304 305 307 309 307 306 307 307 307 307 306 307 310 310 309 304 306 312 315 313 317 319 321 323 323 326 332 336 335 337 338 338 340 339 339 341 340 343 345 340 332 334 337 340 341 343 345 346 347 346 346 347 347 347 346 345 345 345 345 344 343 341 341 340 338 334 333 332 332 332 332 332 332 330 330 330 329 329 328 326 324 324 323 322 321 320
309 311 308 301 307 301 300 300 302 301 301 305 306 307 308 306 308 308 307 305 306 306 309 311 310 309 306 308 309 311 316 317 317 321 321 325 328 331 334 334 337 337 339 339 338 338 339 339 341 342 344 342 345 336 332 336 340 343 344 344 344 344 344 345 345 345 344 344 343 342 341 340 340 341 338 337 334 332 333 334 333 330 330 330 330 329 329 328 328 327 325 324 323 322 321 320 318
309 314 306 304 301 302 303 299 300 300 300 305 306 306 306 308 308 307 306 304 306 310 310 311 311 306 302 306 306 315 317 318 319 320 325 326 328 330 333 334 334 336 336 337 337 337 337 338 338 340 341 343 343 343 344 341 332 338 340 341 341 341 342 342 342 341 340 341 340 337 334 334 332 332 333 334 333 332 331 329 332 330 329 329 329 329 329 328 327 326 325 323 321 320 318 317 316
315 311 307 302 299 301 302 302 303 301 301 306 306 307 305 307 309 306 307 307 307 312 310 306 311 306 308 307 310 315 315 317 320 323 323 324 325 327 330 331 331 332 334 335 335 336 338 337 338 337 339 340 340 341 341 343 333 329 334 336 336 337 337 338 337 336 334 333 331 329 326 328 326 329 324 330 328 331 329 328 329 331 329 329 329 329 328 327 327 326 325 323 321 319 318 316 313
315 312 303 302 298 301 303 302 303 298 304 305 306 306 303 304 308 309 308 308 306 307 308 311 308 311 308 309 315 314 315 319 321 322 323 322 323 322 325 327 328 330 331 333 334 335 337 336 336 336 336 337 339 339 339 339 340 328 328 328 329 332 333 332 333 328 324 322 323 320 322 332 332 332 330 331 322 330 323 322 327 330 329 329 328 328 328 327 326 325 324 322 320 318 315 314 312
312 304 302 300 302 300 304 303 303 306 303 304 305 306 305 302 306 307 307 307 306 307 307 309 311 311 312 313 317 316 316 316 320 319 320 321 322 320 321 324 325 327 329 331 333 334 335 336 336 336 336 336 337 338 338 338 340 333 339 339 337 334 328 326 331 335 327 335 322 326 332 331 332 332 331 326 329 328 326 320 325 330 328 330 329 327 327 326 325 324 323 321 319 316 312 310 309
306 304 303 299 302 303 308 306 305 304 303 305 305 306 305 304 305 307 304 304 305 305 307 309 309 310 312 312 314 315 316 316 319 316 317 320 320 318 321 323 324 326 328 329 331 333 334 335 335 334 335 336 336 335 337 336 336 338 339 338 338 330 333 334 335 334 334 334 332 331 330 332 332 332 330 328 327 321 326 319 324 327 329 328 328 326 325 325 325 324 322 320 317 313 312 312 306
308 304 300 302 307 306 308 308 306 306 306 304 305 305 305 306 306 308 303 303 305 303 304 306 306 307 310 312 313 313 314 314 317 316 314 317 319 318 318 321 323 324 327 329 330 333 334 334 334 335 335 336 335 334 336 335 335 337 337 336 337 337 336 335 335 334 334 333 333 332 331 332 331 331 323 320 323 327 325 319 322 323 324 323 323 325 325 325 324 322 319 316 311 310 309 306 308
308 305 301 303 306 305 307 307 307 307 307 305 304 305 304 306 307 306 304 302 303 305 307 306 306 308 310 311 312 313 313 313 314 315 315 314 317 319 317 318 322 324 326 329 330 331 332 333 334 334 335 336 336 334 334 334 334 333 334 333 334 333 334 335 334 333 333 333 332 330 331 331 331 330 329 328 327 326 325 325 326 326 325 324 319 322 322 322 319 317 313 309 306 307 307 307 307
309 305 306 306 306 304 308 308 307 307 306 305 304 303 303 308 306 305 304 300 301 304 307 308 308 309 309 309 311 312 312 313 312 313 315 314 315 315 317 318 320 323 326 326 328 330 331 332 333 334 335 335 335 334 333 333 332 332 332 333 333 332 333 332 332 332 332 332 332 330 330 329 329 329 328 326 325 325 325 323 323 323 322 322 321 320 320 319 316 313 309 305 305 306 307 307 306
301 304 305 307 307 304 307 307 306 305 305 304 303 305 307 305 304 306 305 304 305 309 309 309 310 310 311 311 311 311 311 311 311 312 313 314 315 315 315 316 317 319 324 325 327 329 330 331 332 333 333 334 334 334 333 333 332 332 332 333 333 332 332 331 331 331 332 332 331 330 329 327 326 327 326 325 324 323 323 323 323 322 323 322 320 319 318 317 314 309 305 305 305 306 306 307 306
304 300 304 304 306 306 307 306 306 306 305 304 306 307 304 304 301 306 305 307 309 310 310 310 310 311 311 310 310 310 310 311 311 312 313 313 315 316 317 315 316 318 324 325 325 327 329 329 331 332 332 332 333 333 332 332 332 332 332 332 332 331 331 330 330 331 332 330 330 328 328 328 326 326 325 324 323 322 322 323 323 323 323 322 319 320 318 315 309 306 305 305 305 306 305 305 304
303 301 304 305 306 306 307 306 306 307 306 307 306 303 303 305 304 305 304 306 309 310 311 310 310 310 310 310 309 310 311 311 311 312 313 314 316 317 319 318 317 317 318 322 324 324 327 328 329 330 331 331 332 332 330 331 332 332 331 331 331 328 331 331 331 331 330 330 330 329 328 326 326 326 324 323 322 322 323 323 322 322 323 322 319 317 314 310 306 304 305 305 304 303 304 304 303
303 304 305 305 305 306 306 306 306 305 305 305 303 303 304 305 306 303 305 306 308 309 309 309 309 309 309 309 309 309 309 310 312 312 312 314 317 315 316 317 318 316 317 319 323 324 325 328 327 328 329 330 330 331 331 331 331 331 331 331 330 329 331 331 330 329 329 329 328 329 328 327 326 325 323 322 321 321 321 322 322 321 320 319 317 314 311 307 304 304 304 303 303 303 302 303 302
303 303 303 302 303 303 304 302 303 305 304 305 301 301 302 305 303 298 306 307 308 309 308 309 308 307 308 308 309 309 309 309 309 310 311 313 314 316 316 318 317 317 318 317 319 322 324 325 327 327 328 329 329 328 329 328 329 330 330 331 331 330 330 330 329 329 328 328 327 328 328 327 326 324 322 321 320 320 319 320 320 319 317 316 314 311 309 306 304 303 303 303 303 303 302 302 301
303 302 301 301 302 303 303 303 303 304 302 304 303 301 303 303 303 300 305 307 308 306 306 307 307 307 307 308 308 310 309 310 311 311 310 310 312 314 314 315 316 317 317 317 318 321 323 323 325 326 327 328 327 327 327 327 328 328 329 330 330 330 329 329 329 328 326 327 327 327 327 327 325 323 322 321 320 319 318 318 317 316 315 314 312 310 306 305 304 304 306 305 305 303 302 301 303
302 301 296 299 301 300 303 302 303 304 302 303 303 299 298 299 298 304 306 307 307 306 306 306 306 306 307 308 308 309 309 310 311 311 311 311 313 313 313 316 316 317 318 318 318 320 321 322 323 324 325 327 326 326 326 327 327 328 328 329 329 330 328 328 327 327 327 327 327 326 326 326 324 323 321 320 318 318 318 317 316 315 314 313 310 309 307 306 304 305 305 305 304 303 301 301 303
301 300 298 297 298 298 303 305 304 303 302 302 301 291 296 299 302 305 307 307 307 305 304 305 306 306 307 307 307 308 309 310 310 311 312 312 312 312 311 313 315 316 317 319 319 318 319 322 323 324 324 325 326 326 326 326 326 327 328 328 328 328 327 326 325 326 326 326 326 324 325 325 324 322 320 319 317 316 316 315 315 314 314 312 309 307 304 303 303 303 302 301 301 301 300 300 298
297 300 300 295 294 295 303 302 302 299 302 301 301 292 295 299 302 305 307 306 305 303 304 304 305 306 306 307 307 307 308 309 309 310 312 312 313 313 312 312 312 314 317 317 318 318 318 320 322 320 322 324 325 325 325 326 326 326 326 326 326 326 325 325 324 325 325 325 324 322 323 323 323 321 320 318 316 315 314 314 314 313 313 310 307 306 304 302 301 301 300 299 299 299 300 299 298
299 295 293 297 294 297 301 304 301 298 300 301 299 292 295 299 302 305 306 305 304 303 303 303 304 305 305 306 306 306 307 309 310 310 311 310 311 311 312 312 312 311 311 315 317 318 316 318 320 319 321 322 324 324 325 325 325 326 326 321 325 325 324 324 324 324 324 324 323 321 322 322 321 320 318 317 315 314 312 312 312 312 312 308 307 305 303 300 300 301 300 300 297 298 299 298 299
299 295 293 294 296 296 298 303 304 303 300 299 299 293 297 298 302 304 305 305 304 303 303 304 304 305 305 305 306 306 307 308 309 310 310 310 311 310 310 310 311 311 312 311 313 316 316 316 317 318 319 320 322 323 324 325 325 325 325 324 324 325 323 323 323 323 323 323 322 320 320 320 318 319 317 316 314 313 311 311 311 311 309 307 306 304 302 301 301 301 299 300 300 298 299 298 298
295 299 294 297 295 297 295 301 303 304 300 297 298 294 296 298 301 303 304 304 303 302 302 303 304 304 305 306 306 306 306 307 307 309 309 310 310 310 310 310 311 310 310 311 312 313 314 315 316 317 318 319 320 322 322 323 323 324 324 324 323 323 324 323 323 323 322 322 321 320 319 318 317 318 316 314 313 312 311 310 310 310 307 306 304 303 302 301 301 300 299 300 299 299 297 297 296
295 297 296 297 298 298 296 296 300 300 300 297 298 297 297 299 301 302 303 304 303 302 302 303 304 304 305 305 305 306 306 307 308 309 309 309 310 310 310 310 310 311 310 309 311 312 313 315 315 315 315 316 317 319 321 322 322 322 323 323 322 322 322 322 322 321 321 321 320 319 318 317 315 317 314 313 312 310 309 308 307 308 306 305 303 302 301 300 301 300 299 299 300 300 298 298 297
297 297 296 296 293 294 295 299 302 301 298 297 297 295 296 298 300 301 302 303 302 303 303 304 304 305 305 305 306 306 307 307 309 310 311 310 309 309 309 309 309 309 308 308 308 310 312 313 314 314 313 314 315 317 319 319 319 318 318 319 319 319 320 319 320 319 319 319 319 317 316 316 315 314 313 312 311 309 308 306 306 306 305 303 302 301 299 299 299 299 300 299 299 299 299 298 298
299 298 297 294 294 295 298 299 301 302 297 296 296 297 297 297 299 300 302 303 302 302 302 303 304 305 306 306 306 307 306 306 312 311 309 309 309 309 309 309 308 308 307 307 307 308 310 311 312 312 312 312 313 313 315 316 315 316 316 316 316 317 317 318 318 318 318 317 318 316 315 314 314 313 312 311 310 308 307 306 305 304 303 302 302 301 300 300 300 300 300 299 298 297 298 298 299
297 296 295 294 295 293 298 298 301 302 297 295 297 296 296 297 299 300 302 302 301 302 302 303 304 305 306 306 306 305 306 310 309 307 307 308 308 308 308 308 307 306 307 307 306 307 308 309 309 311 312 311 311 312 313 314 315 315 315 315 315 316 315 315 315 316 316 317 316 316 314 313 313 312 310 311 309 308 306 304 304 303 302 301 301 301 301 300 300 299 300 297 298 296 296 298 297
297 294 294 294 294 297 299 300 301 300 295 294 296 294 295 297 299 301 302 302 302 303 304 304 305 305 305 305 305 306 306 306 305 305 306 306 307 306 306 306 305 305 305 305 306 306 306 308 309 310 311 311 310 310 311 311 313 314 314 314 314 314 316 316 315 315 315 314 314 314 313 312 312 310 309 309 308 307 306 304 303 302 301 300 300 299 300 300 300 299 299 296 295 296 296 299 297
295 294 293 292 296 294 292 298 297 298 295 294 295 294 295 298 301 302 303 303 303 305 305 306 307 303 304 304 304 305 305 304 303 303 303 303 304 304 303 303 303 304 304 305 304 304 305 305 307 308 309 310 310 310 309 311 312 313 314 313 313 313 312 312 312 313 312 312 311 311 312 311 311 309 308 308 307 306 305 303 302 301 300 300 300 298 299 299 299 298 298 297 296 293 294 295 297
297 296 295 294 294 296 295 295 297 298 298 298 296 294 296 300 299 300 302 304 303 304 306 306 305 306 306 306 305 304 302 302 301 301 301 301 301 301 301 302 302 302 302 303 303 303 304 304 305 306 308 308 309 309 308 309 309 310 310 310 309 309 308 307 307 307 308 308 309 308 309 310 310 309 308 307 305 305 305 304 302 301 300 300 299 299 299 299 299 298 298 296 296 294 292 295 295
295 298 297 296 297 296 296 296 294 292 292 295 293 289 291 298 299 299 302 303 303 305 304 303 303 304 304 303 303 303 303 302 300 299 299 300 299 300 300 300 300 301 301 302 303 303 304 304 305 306 306 307 307 308 308 308 307 307 306 305 304 304 303 304 303 304 305 305 306 308 308 308 309 308 308 307 305 304 304 303 302 301 300 299 299 299 299 299 299 298 298 296 296 296 295 294 293
292 294 299 298 297 296 295 294 293 288 287 294 295 287 285 295 296 299 300 301 301 304 303 302 301 301 301 300 300 300 300 300 300 299 299 298 298 298 298 298 299 299 300 302 302 303 303 303 304 305 305 305 307 306 307 306 306 306 305 305 305 304 303 305 306 306 306 307 307 306 307 307 307 307 307 306 305 304 304 303 302 301 300 299 299 298 298 298 299 298 298 296 296 296 297 294 293
291 296 298 297 296 294 294 294 293 290 295 296 295 292 287 288 295 300 300 299 300 299 299 299 299 298 298 299 299 298 298 298 298 297 297 297 297 297 297 298 298 298 300 301 301 301 301 302 302 302 303 304 304 305 305 306 304 305 305 305 305 304 304 304 305 305 306 305 305 305 305 305 305 306 305 305 305 304 303 303 302 301 300 299 298 297 297 298 299 299 298 297 297 296 296 294 294
295 295 296 295 293 294 294 293 291 292 290 287 292 294 287 288 296 299 300 297 296 296 296 297 297 298 297 297 297 297 297 297 296 295 295 295 296 296 297 297 298 298 299 299 300 300 301 301 301 301 301 302 302 304 304 304 304 304 304 304 304 305 305 305 305 306 304 304 303 303 303 303 303 304 304 304 304 304 302 302 302 301 299 299 298 298 298 299 299 298 297 296 296 296 295 295 295
298 296 296 296 296 295 294 291 291 291 288 284 290 293 287 288 296 297 297 296 294 294 295 295 296 296 296 296 296 295 295 295 295 295 295 295 295 296 297 297 297 297 298 299 299 299 299 299 299 299 299 300 301 302 303 303 304 303 303 303 303 303 304 304 304 304 304 304 302 302 302 302 302 302 302 303 303 303 302 301 301 300 300 299 297 298 297 298 298 298 298 296 296 295 296 295 295
296 297 295 294 295 294 294 293 290 288 284 287 293 293 291 285 294 296 296 295 295 295 295 296 295 295 295 294 294 293 293 293 293 293 294 294 295 296 296 295 296 297 297 298 298 298 298 298 298 297 298 299 300 300 301 301 302 303 302 302 302 302 303 303 302 302 303 303 302 302 302 301 301 301 301 301 302 302 302 301 300 300 300 299 298 298 297 297 298 298 299 297 296 295 295 295 295
296 293 292 292 291 293 290 289 290 284 284 290 293 293 294 284 291 296 298 299 299 298 295 294 293 293 293 293 293 293 292 291 292 291 291 292 293 294 294 294 294 295 295 296 296 297 297 297 297 296 296 297 298 299 299 300 301 301 301 301 301 301 301 301 301 301 302 301 302 301 301 301 300 301 300 300 300 301 301 300 300 300 299 299 298 298 297 297 297 298 298 297 296 296 296 295 295
293 292 291 286 286 288 284 286 281 283 284 288 290 292 289 289 293 298 300 297 297 297 297 294 293 292 291 291 291 292 292 290 289 290 290 289 290 291 291 292 293 293 293 294 295 296 296 296 296 295 295 296 296 297 297 298 298 299 299 299 300 300 300 301 300 300 301 301 301 301 301 300 300 300 299 299 299 300 300 299 299 299 298 298 298 298 298 297 297 297 297 297 296 295 295 294 294
292 290 289 286 283 283 281 285 288 288 287 288 290 293 286 292 295 300 299 295 296 295 294 294 293 292 291 291 291 291 291 290 289 289 288 288 289 289 289 290 291 292 292 293 293 294 295 295 295 295 295 296 296 296 296 296 297 297 298 298 298 299 299 299 300 299 300 300 301 300 300 300 300 300 300 299 299 300 299 299 299 299 299 299 298 298 298 297 297 296 296 296 295 295 295 294 294
293 297 293 289 288 284 280 284 281 283 286 289 292 287 286 287 291 295 293 294 294 294 293 293 292 292 291 291 291 290 290 289 289 288 287 287 288 288 288 289 290 290 291 292 292 293 293 293 293 293 294 294 295 295 295 295 295 296 296 297 297 297 297 298 298 299 299 299 299 299 300 300 299 300 300 300 301 300 299 299 299 298 299 298 298 298 298 297 297 296 296 296 295 295 294 294 293
295 296 295 289 288 295 284 286 285 285 285 285 287 286 291 292 297 295 295 294 293 293 292 292 291 291 290 289 289 289 288 288 288 288 287 287 287 288 288 289 289 289 290 291 291 292 292 292 293 293 293 293 293 294 294 295 295 295 295 295 295 296 296 297 297 298 298 298 299 299 298 299 299 299 300 300 301 300 299 299 298 298 298 298 298 297 297 296 296 295 294 294 294 295 293 293 293
292 291 287 291 300 294 288 287 287 287 285 281 289 288 292 297 299 295 294 292 292 292 291 291 290 289 289 288 287 287 287 287 287 287 287 287 287 287 288 288 288 289 290 290 290 291 291 292 292 291 292 292 292 292 293 294 294 294 294 294 294 294 295 295 295 296 297 297 298 298 298 298 298 298 299 300 300 300 299 299 298 298 298 298 297 297 296 296 295 295 294 293 293 294 293 293 293
293 287 292 295 298 296 290 282 285 283 279 281 287 284 287 289 285 296 293 291 290 289 289 289 288 288 287 286 286 286 287 287 287 287 287 287 287 287 287 288 288 288 289 289 289 290 291 291 291 291 291 291 291 292 292 292 292 293 293 293 294 294 294 294 294 294 295 296 296 297 297 297 297 298 298 299 299 299 299 298 298 297 297 297 296 296 296 295 295 294 294 293 293 293 293 292 292
294 292 296 290 285 284 289 285 278 278 278 281 285 287 287 290 289 293 291 291 289 288 288 287 286 286 285 285 285 285 286 286 286 286 286 286 286 286 286 287 287 288 288 289 290 290 290 290 291 291 290 291 291 291 291 292 292 292 292 292 292 292 293 293 294 294 294 294 294 295 295 296 296 297 297 297 297 297 297 297 297 296 296 296 296 295 295 294 294 293 293 293 293 293 292 291 292
295 295 293 298 291 287 285 286 286 285 278 280 280 285 283 293 292 296 294 293 290 287 286 285 284 284 284 284 284 284 284 284 285 285 285 285 285 285 285 285 286 287 287 288 288 289 288 289 289 289 290 290 290 290 290 290 291 291 291 291 291 291 292 292 293 292 292 292 292 293 293 294 294 295 295 296 295 295 295 295 296 295 295 295 295 295 294 294 293 293 292 292 292 292 291 291 291
289 289 288 291 289 292 291 290 287 284 281 280 280 279 285 293 293 293 291 292 291 289 286 284 284 283 283 283 284 284 284 285 285 285 285 285 285 285 286 286 286 286 287 287 288 288 288 289 288 289 288 288 288 289 289 290 290 290 290 289 289 289 290 291 291 291 290 291 291 292 292 292 293 293 294 294 294 294 294 294 295 295 294 294 294 294 294 293 293 292 292 292 291 291 290 290 290
293 291 288 291 288 285 282 280 290 286 284 280 280 278 287 294 292 293 291 290 289 289 286 285 284 284 284 284 284 285 285 285 285 286 286 286 286 286 287 287 288 288 289 289 290 290 290 289 288 288 288 287 287 288 288 289 289 289 288 288 288 289 289 289 289 290 289 290 290 291 291 292 291 292 292 293 293 293 293 293 293 294 294 294 294 294 293 293 292 291 291 292 291 290 290 289 290
Wind_Speed
7 7 5 5 5 5 6 3 6 4 4 4 5 2 4 1 3 3 1 4 0 5 4 4 3 4 5 7 9 9 9 9 7 7 5 2 3 4 5 6 3 8 12 10 12 13 12 11 12 13 14 15 15 14 13 13 14 13 13 12 11 11 11 10 9 9 9 9 9 9 8 8 8 8 8 8 7 6 5 4 4 4 5 5 6 7 8 8 8 8 8 9 10 10 8 9 9
5 4 5 5 4 4 2 4 4 5 4 6 1 1 6 4 4 1 5 6 5 5 5 4 4 5 7 8 8 9 10 9 8 6 3 4 6 5 7 5 6 10 11 10 11 13 13 14 10 12 14 15 15 14 14 14 13 13 13 12 11 11 10 9 9 9 9 9 9 9 9 9 9 9 8 8 8 8 6 5 5 6 6 6 7 7 7 8 8 10 6 9 9 9 8 9 9
4 5 4 4 5 5 5 4 5 4 5 5 4 5 2 2 1 4 5 5 6 4 3 4 4 5 7 6 8 5 3 3 4 3 3 8 5 6 9 7 7 8 12 9 10 13 11 14 10 11 15 15 15 15 14 14 13 13 13 12 11 10 10 10 10 10 9 9 10 10 9 9 8 8 8 9 8 7 6 5 6 6 6 7 7 6 7 6 8 6 5 7 8 8 8 8 8
6 4 5 2 4 3 5 4 6 5 5 3 2 5 3 3 4 5 5 4 4 2 1 3 3 5 5 6 3 5 10 4 3 5 2 4 5 5 9 9 7 8 10 8 10 12 12 14 11 10 12 15 15 13 13 13 13 13 12 12 11 10 10 10 10 10 10 10 10 9 9 9 10 10 10 9 8 7 5 5 6 6 7 8 7 7 7 7 6 5 5 7 8 8 8 8 8
6 3 3 4 5 4 3 4 5 4 6 4 5 4 4 1 4 6 5 4 4 2 3 1 5 5 5 7 5 4 5 3 2 1 1 4 2 4 9 8 9 9 10 10 10 11 11 18 15 11 12 13 15 14 14 12 14 13 13 12 11 11 11 11 11 11 11 10 10 9 9 10 10 10 9 9 7 7 6 5 6 6 6 6 6 6 6 6 5 4 4 7 8 8 8 8 7
5 3 3 4 3 4 4 5 6 6 4 3 4 4 5 5 5 5 7 6 1 2 2 4 6 5 3 4 5 5 4 5 3 2 2 4 3 3 9 8 9 9 11 11 10 10 10 19 17 13 12 14 16 15 14 13 14 14 13 13 12 12 12 12 12 11 11 10 10 10 10 11 10 10 9 8 7 8 5 4 2 4 4 4 5 5 5 5 5 3 5 7 7 8 8 8 7
3 3 3 4 3 2 4 5 6 5 2 2 4 6 6 7 6 6 6 6 5 2 3 4 1 5 7 3 5 8 3 2 3 3 4 4 3 4 9 8 8 9 12 11 10 10 11 17 16 14 12 13 14 14 13 14 14 14 13 14 13 12 12 12 12 11 11 10 10 11 11 11 11 10 9 7 6 5 3 4 2 3 0 0 2 3 4 4 4 3 3 6 7 8 8 8 7
3 4 1 5 3 4 5 5 6 4 1 1 5 8 7 7 7 6 7 6 2 2 6 5 4 2 5 3 5 6 4 1 3 5 5 4 5 6 8 8 8 9 11 11 10 8 14 15 16 14 12 13 13 13 13 14 14 14 14 14 14 13 12 13 13 12 11 10 11 11 12 12 10 9 9 8 5 4 1 3 4 4 2 3 2 2 3 3 3 3 3 6 7 8 8 8 7
3 6 1 4 6 4 5 6 5 3 6 4 5 6 7 7 5 5 7 4 5 4 4 6 5 4 5 1 5 6 4 5 5 5 4 4 4 7 6 8 8 8 10 10 9 8 10 12 14 13 12 13 13 14 14 15 15 14 14 14 14 14 13 13 13 11 10 11 11 12 12 11 10 9 8 8 7 5 3 4 7 6 4 5 5 4 3 3 4 4 4 6 7 7 8 7 8
3 4 2 4 5 6 5 5 4 3 4 3 6 7 6 5 5 3 6 7 2 3 0 3 3 8 8 10 7 3 4 5 5 4 4 4 4 6 6 8 8 9 10 10 9 9 8 9 11 12 12 12 13 13 14 16 15 15 15 14 14 13 12 11 11 12 11 12 12 12 11 11 11 10 10 9 7 7 7 7 9 8 6 6 6 5 3 4 4 4 5 6 7 7 7 7 8
4 4 3 5 6 5 5 4 3 3 2 2 5 5 2 2 3 4 4 6 3 4 3 3 5 10 8 8 7 4 7 6 4 3 7 5 4 6 6 7 7 9 10 10 9 8 9 10 8 9 11 12 12 13 14 14 15 14 15 14 15 13 12 12 12 12 13 13 14 14 12 11 10 9 10 9 9 8 8 9 9 7 6 7 6 5 5 5 4 5 6 7 7 7 7 8 8
4 3 3 5 6 5 6 6 7 7 7 6 6 4 2 1 1 3 2 6 1 3 6 8 2 3 7 7 5 5 7 5 4 6 6 6 5 6 6 6 6 8 9 10 9 8 9 11 9 7 9 11 12 13 13 13 14 14 14 13 14 14 14 14 13 14 14 13 12 11 11 12 11 12 11 11 9 10 8 8 9 8 8 7 7 7 6 5 5 6 7 7 7 7 8 8 8
5 3 5 6 6 4 6 6 5 6 9 4 2 5 3 2 3 2 5 6 7 6 7 9 1 3 6 7 4 6 7 7 5 5 5 5 5 6 5 6 7 8 8 9 9 9 11 11 14 12 9 8 9 12 12 12 13 13 13 14 13 13 14 14 14 13 12 11 11 11 11 11 9 9 10 8 6 7 8 9 9 9 9 9 8 7 7 7 7 7 8 8 7 8 8 8 8
5 3 5 7 2 7 7 6 7 6 5 5 3 5 2 3 2 4 5 8 7 8 4 3 3 4 11 10 8 6 6 5 5 4 4 4 3 5 6 5 7 8 8 10 10 10 11 11 14 15 12 9 10 7 9 11 12 13 13 13 13 12 12 12 11 11 11 11 9 9 9 8 11 9 8 7 7 7 7 7 6 9 9 8 8 8 7 8 7 8 8 8 8 8 8 8 9
4 2 4 6 7 5 6 6 5 6 7 3 4 3 3 5 3 4 6 9 7 7 2 1 4 1 3 2 4 6 4 6 4 5 5 4 4 4 6 5 6 7 8 10 11 11 12 12 13 14 15 14 14 12 11 9 11 11 12 13 12 11 12 12 11 11 10 10 9 7 6 8 8 8 8 7 7 5 4 2 3 10 9 9 9 8 8 8 9 9 9 8 8 8 8 8 9
4 3 4 6 7 5 1 4 3 5 5 2 5 2 3 5 5 6 2 3 9 9 2 6 8 8 8 11 10 5 7 6 6 6 5 6 4 4 5 5 6 8 8 10 11 11 12 13 11 13 14 15 15 14 14 14 10 11 11 10 11 11 11 12 11 10 10 10 9 9 10 8 8 7 9 7 8 7 6 5 5 5 9 9 9 9 9 9 9 9 9 9 8 8 8 8 8
3 4 6 6 8 6 2 4 1 5 5 5 7 4 4 6 5 4 2 3 10 13 10 9 9 9 15 14 2 8 8 7 6 7 6 5 5 4 5 5 6 7 7 10 11 12 13 14 14 11 14 16 16 15 13 14 12 12 9 9 10 10 10 11 10 9 8 8 9 10 10 8 8 6 7 7 8 7 8 6 6 6 9 10 10 11 10 10 10 10 9 9 9 9 9 9 7
4 5 6 8 7 9 4 6 7 4 7 9 5 1 6 9 4 3 2 9 11 13 16 14 11 14 15 13 3 7 9 8 8 7 6 5 5 6 6 7 8 9 9 9 11 12 13 14 15 14 12 16 16 13 11 10 9 13 12 10 8 8 8 9 9 8 8 7 9 9 8 8 7 7 8 8 7 8 8 8 7 6 10 8 9 11 11 11 10 10 10 10 10 10 11 5 5
6 6 7 9 7 7 4 8 9 9 9 9 10 7 7 10 7 6 8 10 10 13 16 14 12 15 16 15 11 8 8 7 8 8 8 9 8 9 8 7 9 9 9 9 10 14 12 12 14 16 14 14 16 15 10 11 11 9 14 15 10 10 9 9 10 9 9 9 8 8 8 8 8 8 8 7 8 9 8 9 8 6 8 8 8 10 11 10 10 10 10 9 9 9 5 3 4
8 8 9 9 9 12 9 7 12 10 10 11 11 11 7 9 8 6 10 13 11 14 14 14 12 13 12 13 15 14 10 10 9 9 11 12 11 10 10 10 10 11 11 11 11 11 13 12 15 15 15 14 14 13 12 12 12 10 10 12 11 10 11 9 12 12 11 11 9 8 8 8 8 7 6 10 6 8 7 9 8 7 7 8 8 8 9 9 10 9 8 8 6 4 2 2 3
3 7 9 9 7 8 8 8 9 10 8 10 11 11 13 12 10 7 9 11 11 14 16 17 17 14 12 10 10 7 11 10 10 10 12 13 13 10 10 11 10 10 10 9 9 11 15 15 13 14 15 14 15 12 13 13 12 12 11 13 13 12 12 12 12 12 12 12 12 11 11 9 9 8 6 7 8 8 8 9 7 8 7 7 8 8 7 7 6 5 4 5 4 3 2 2 2
5 10 12 13 13 12 10 11 8 4 3 9 12 13 13 8 4 11 13 14 11 11 13 14 16 16 15 15 12 9 7 10 11 12 13 13 14 14 12 11 10 8 8 9 11 12 15 15 14 13 14 15 15 13 13 12 13 12 11 11 12 12 11 12 12 12 12 11 11 11 10 11 11 8 7 9 9 8 8 8 9 9 9 9 10 7 7 7 6 5 5 5 3 3 2 2 2
8 11 13 14 14 15 11 11 1 3 9 12 13 12 11 11 12 12 14 16 16 17 17 19 19 18 16 14 13 10 11 13 14 14 14 13 14 14 13 11 10 9 8 10 10 10 12 15 15 13 14 14 16 14 12 11 12 12 11 11 11 11 11 12 11 11 11 11 11 11 10 10 11 9 8 9 10 8 8 9 9 9 9 8 9 7 8 7 6 5 5 4 3 3 2 2 2
9 13 12 15 10 13 12 13 1 6 10 14 13 14 15 15 17 12 14 14 20 21 20 20 20 19 17 15 14 14 14 14 14 14 14 14 13 14 13 13 10 8 8 9 9 9 10 14 15 15 13 14 13 15 13 12 12 12 12 11 11 11 11 11 10 11 10 11 11 12 11 10 12 9 8 9 9 8 8 8 8 9 8 8 9 7 7 6 6 5 5 4 4 3 3 3 2
10 12 12 12 11 11 12 12 12 10 12 13 13 14 19 16 16 16 21 18 19 20 19 19 19 18 16 15 15 14 14 14 14 14 13 11 11 11 10 9 10 9 10 10 9 10 11 12 15 16 15 15 13 13 14 12 12 12 13 12 12 11 11 11 11 10 10 9 11 12 12 12 10 9 9 9 8 8 8 8 8 8 8 7 8 7 6 6 5 5 5 5 4 4 4 3 3
11 14 13 12 13 12 11 13 13 12 10 9 11 17 19 18 17 22 24 21 20 21 21 19 17 16 15 15 15 14 13 14 13 13 13 10 9 10 10 10 9 11 13 11 10 10 11 12 15 17 16 14 13 13 12 13 12 11 12 12 11 11 12 11 12 10 10 10 11 13 14 12 9 9 9 9 9 9 8 8 8 7 8 7 7 6 6 6 5 5 5 5 5 4 4 4 3
5 9 9 11 14 15 15 17 17 15 14 11 12 17 18 14 9 14 11 7 6 11 14 13 12 13 14 13 13 12 13 14 15 13 11 8 9 9 9 8 10 12 11 13 11 10 10 12 13 15 16 14 13 13 12 13 12 12 11 11 11 12 12 11 10 10 10 10 12 15 14 12 9 9 9 9 9 9 8 8 8 7 7 7 7 6 5 5 5 5 5 5 5 4 4 4 3
9 9 12 17 17 17 18 18 19 12 13 14 16 17 17 15 11 17 19 11 6 8 13 14 14 14 13 13 13 12 12 12 11 10 13 11 7 8 9 9 11 11 12 13 12 10 10 14 14 14 15 14 14 14 12 12 12 12 11 11 11 11 12 11 10 10 10 11 14 13 12 11 10 9 10 10 9 9 9 9 8 8 7 6 6 6 5 5 4 4 4 4 4 4 4 4 2
8 7 12 14 15 16 18 17 18 14 13 3 3 9 15 14 12 20 20 18 16 15 12 12 13 14 14 14 13 12 12 11 10 10 11 9 8 8 9 9 10 10 9 12 11 11 12 12 12 14 15 15 16 15 13 12 11 11 11 11 10 9 10 10 10 10 10 10 11 11 11 12 11 10 10 10 10 9 9 9 9 8 7 6 6 6 6 4 4 4 4 3 3 3 4 4 2
6 10 11 14 13 14 17 12 13 12 4 9 5 8 5 9 13 16 16 13 10 8 11 12 11 12 12 13 13 14 14 13 13 11 8 8 9 9 11 11 11 10 8 7 10 11 10 7 8 9 13 15 15 14 12 11 12 11 10 10 10 10 10 10 10 9 9 10 10 10 12 12 11 10 10 10 10 9 9 9 9 8 7 7 7 6 6 5 4 5 5 4 4 4 4 4 4
8 10 4 9 10 13 11 5 5 6 7 8 7 12 8 12 16 14 11 4 6 11 13 15 16 15 14 13 13 15 16 15 15 15 13 10 8 7 10 12 12 11 7 7 9 11 11 10 8 8 11 14 13 14 13 12 11 11 10 10 10 10 9 9 10 9 9 9 10 9 11 11 11 11 10 10 10 9 8 8 9 8 8 8 7 7 7 6 5 6 5 6 5 4 4 4 4
8 8 9 9 10 10 10 6 10 9 5 8 9 10 9 9 10 8 5 3 8 13 15 17 17 16 15 14 16 16 17 16 15 14 12 12 11 10 9 11 10 10 10 8 8 8 11 11 10 9 10 14 13 13 13 11 11 10 10 9 9 10 9 9 9 10 9 9 10 9 11 11 11 12 11 10 9 9 8 8 9 8 9 8 7 7 7 7 6 6 6 6 6 5 5 4 3
10 11 13 12 12 14 12 8 7 11 4 9 12 10 10 11 10 12 14 19 17 16 17 17 19 19 17 15 14 14 14 14 11 11 10 9 7 8 9 9 7 8 8 9 8 7 8 10 9 10 10 12 12 12 12 11 9 10 10 9 10 10 9 9 9 9 9 9 9 9 11 11 11 12 11 10 9 10 9 8 8 9 8 8 8 7 8 7 7 6 7 6 5 6 6 6 5
10 10 12 11 14 12 11 8 11 4 7 8 14 12 13 14 14 16 17 16 18 17 19 20 19 16 16 15 15 14 14 12 12 9 7 7 8 9 9 9 8 6 6 6 7 7 7 7 8 8 8 9 10 10 11 10 9 9 8 8 9 9 10 8 8 8 8 8 9 9 10 11 10 12 11 10 9 9 9 8 8 9 9 8 8 8 8 7 7 8 8 7 7 6 6 7 6
10 11 13 12 11 11 12 10 4 6 8 11 11 16 17 15 14 13 15 14 14 16 20 19 17 16 15 15 14 14 11 11 7 6 9 10 10 9 8 7 7 6 5 5 4 5 4 4 5 7 8 8 9 9 9 10 9 8 8 8 8 8 7 8 7 8 7 8 9 9 9 9 9 11 11 10 9 9 9 8 8 9 8 8 8 8 8 8 8 8 8 7 6 6 6 7 7
18 17 13 14 14 14 14 15 15 16 19 17 15 15 16 16 15 14 15 15 17 19 21 18 16 16 16 14 11 10 7 5 6 7 8 9 9 9 7 7 6 5 5 4 3 2 3 3 3 4 6 7 7 7 7 7 7 8 8 8 8 8 8 8 7 7 7 8 8 8 8 9 10 10 11 10 10 9 8 8 8 8 8 8 8 9 9 9 10 10 9 10 8 5 4 6 6
18 16 13 16 17 17 15 17 15 12 10 12 14 16 17 16 15 16 17 18 18 19 18 19 18 15 12 9 8 4 7 5 5 7 10 11 10 9 8 8 9 7 7 7 4 3 2 2 2 4 4 6 6 6 6 6 7 7 7 8 8 7 7 7 7 7 7 7 8 8 8 9 9 10 10 10 10 9 8 8 8 8 8 8 8 9 9 9 9 9 7 7 9 7 5 6 7
15 15 15 16 14 17 15 17 14 15 13 12 11 16 16 17 18 21 20 17 17 17 17 19 19 13 9 5 6 5 5 5 8 11 12 12 12 12 11 10 12 12 11 10 9 8 6 5 3 2 2 4 6 6 5 6 6 6 6 6 7 6 6 7 7 7 7 6 7 7 7 8 9 9 9 9 9 10 9 8 8 8 8 8 7 7 9 8 9 9 7 7 6 8 7 8 8
14 13 13 14 13 15 17 18 11 6 4 11 12 17 15 18 21 20 16 12 12 14 16 17 14 6 3 4 4 5 4 9 12 13 13 13 15 15 13 12 13 13 12 12 11 10 9 6 5 4 2 1 3 4 4 4 5 5 5 4 5 5 5 5 5 5 6 7 6 6 7 7 8 7 8 9 8 9 9 8 8 8 9 8 8 8 9 9 9 11 10 9 7 6 5 6 9
11 11 11 12 10 12 12 4 2 4 3 11 14 17 13 17 18 12 5 6 9 13 17 14 4 5 3 4 6 5 10 11 14 14 15 15 15 15 15 14 13 12 12 12 12 12 9 10 8 6 4 2 2 2 3 2 3 3 3 3 1 3 2 2 3 3 4 5 6 6 6 6 8 8 8 9 7 8 10 9 8 8 10 10 10 10 10 10 10 10 10 10 8 8 7 8 9
11 13 12 12 15 14 14 13 15 16 15 14 12 12 11 5 4 5 7 5 6 15 10 3 9 4 5 8 12 14 14 14 14 16 16 16 16 16 16 15 13 13 12 12 12 12 9 11 10 8 6 5 4 3 1 2 1 2 2 2 2 1 1 1 3 5 6 6 7 7 8 9 10 10 10 11 10 10 9 8 8 7 8 9 9 10 10 11 11 11 12 11 12 10 10 6 8
11 12 13 16 16 16 15 15 14 9 10 4 8 8 4 4 1 4 7 8 14 11 7 8 8 7 9 13 14 14 14 14 15 15 15 15 15 15 16 16 16 14 14 12 11 11 12 11 11 9 7 6 6 5 3 2 1 2 3 3 4 4 5 5 6 6 6 7 7 7 7 8 9 9 9 9 10 10 10 10 9 8 8 7 8 8 8 9 11 12 13 12 12 12 9 7 8
10 7 6 10 11 11 12 13 8 6 4 3 4 5 9 4 12 11 7 11 18 8 11 11 11 12 12 13 13 14 13 12 13 15 15 16 16 16 17 17 16 15 14 12 11 11 12 11 11 10 8 7 6 6 5 3 2 3 4 5 4 5 5 4 4 5 5 4 4 6 6 7 8 9 9 9 9 10 10 9 10 10 9 9 9 9 9 10 9 12 11 12 12 11 10 9 10
10 5 6 6 7 9 9 7 6 10 10 13 10 7 9 9 7 6 9 13 7 11 12 14 13 14 14 14 14 14 14 14 12 14 15 15 16 16 16 16 16 16 14 13 12 11 13 13 12 11 9 8 8 7 5 4 4 3 4 4 5 5 5 5 5 3 3 3 3 4 4 5 7 8 8 9 9 10 10 9 10 9 9 9 9 10 10 10 7 9 12 13 11 11 13 11 11
3 3 6 4 4 7 6 6 7 8 9 9 3 9 5 6 3 7 9 7 10 10 12 12 14 13 14 14 14 14 14 15 15 13 15 16 15 15 14 15 15 15 14 13 13 13 12 13 14 13 11 10 9 8 7 5 4 5 5 4 5 5 5 5 5 3 2 2 3 3 4 4 5 7 8 9 9 9 9 10 10 10 10 10 9 8 10 9 10 10 12 12 13 12 12 12 10
3 1 1 2 3 4 5 6 7 8 7 12 4 10 6 10 5 4 3 3 8 9 10 14 14 13 12 12 13 13 12 13 13 14 14 15 15 14 13 12 13 12 11 12 12 11 13 13 15 15 14 10 10 10 8 7 6 5 5 5 6 6 6 6 5 5 4 3 3 4 4 4 4 5 7 8 8 10 10 10 10 10 11 10 9 10 11 11 10 11 12 13 14 13 11 12 12
3 2 6 8 7 6 6 6 6 5 9 12 12 15 9 8 3 3 3 5 8 9 7 9 13 12 12 12 13 11 11 11 12 13 14 14 13 12 12 13 12 12 10 11 10 11 13 14 14 15 15 11 12 11 11 9 7 6 5 6 7 7 7 6 5 5 5 5 5 4 4 4 4 5 6 7 9 9 10 9 10 10 10 9 9 10 11 11 9 9 10 13 13 14 12 12 12
1 4 4 6 8 7 5 4 4 4 9 3 4 7 10 5 2 4 7 8 7 7 9 9 10 11 11 10 8 10 11 10 10 11 13 14 14 15 15 15 14 13 12 13 13 13 14 14 14 15 16 15 13 12 12 11 9 8 7 6 6 6 7 6 6 6 5 5 5 5 5 4 5 4 5 6 7 9 8 9 9 9 9 10 11 9 10 10 10 9 9 9 11 13 13 12 11
4 5 4 4 5 2 6 4 4 8 7 4 2 3 6 12 12 9 14 8 8 11 10 12 12 11 11 10 9 8 8 9 10 11 11 10 11 11 13 13 12 13 13 15 15 14 14 15 16 16 16 15 14 13 12 12 11 10 9 8 8 7 6 6 6 6 6 6 5 5 5 5 4 4 5 6 7 8 8 8 9 9 9 10 10 10 10 11 11 10 10 11 13 14 14 14 12
6 6 4 3 6 7 10 9 8 9 2 4 3 3 7 11 12 14 9 10 11 13 13 12 12 12 11 8 7 7 8 8 8 8 8 8 8 8 8 9 10 11 14 14 14 14 13 13 15 15 15 15 14 13 13 12 12 11 10 9 8 7 7 7 6 5 5 5 5 6 5 5 5 6 6 6 6 7 8 8 8 9 9 9 10 11 10 11 11 11 10 12 13 13 13 16 15
9 6 7 5 4 4 9 6 10 8 8 8 1 5 3 3 3 14 14 11 13 12 11 12 13 10 9 8 8 7 8 8 8 8 8 8 8 8 7 7 8 10 13 13 12 13 13 13 14 15 15 15 14 13 12 13 11 12 11 9 8 7 7 7 7 6 6 6 6 6 6 6 6 7 6 5 5 6 7 7 8 9 9 9 9 9 9 10 10 10 10 11 11 11 12 13 13
4 0 3 1 6 3 6 5 7 7 11 12 5 6 4 6 8 11 12 13 12 12 12 11 11 9 8 6 5 6 8 8 7 8 7 8 7 7 6 7 8 10 12 11 12 11 11 11 12 13 13 13 13 14 13 12 12 11 12 12 11 10 8 7 6 6 7 7 7 6 7 7 7 7 7 6 5 5 6 7 7 8 9 9 9 9 9 9 9 10 10 10 11 8 11 14 13
3 4 5 4 3 6 3 3 8 9 5 14 6 9 13 9 14 12 14 14 11 11 10 10 9 8 7 6 6 7 8 7 6 6 6 5 4 4 5 7 9 9 10 11 11 10 11 10 11 12 12 11 12 12 12 11 11 11 11 11 10 9 9 9 8 9 9 7 7 6 6 7 7 7 7 6 7 6 6 7 7 8 8 9 9 9 9 8 8 9 10 10 11 9 11 13 12
6 3 3 4 1 2 4 8 3 6 10 8 5 13 11 8 8 11 13 13 10 8 9 9 9 7 7 6 5 5 5 5 4 3 2 2 3 4 5 5 6 7 8 9 10 9 8 9 10 10 11 12 11 11 11 10 10 10 10 11 10 9 8 8 8 8 8 8 8 7 7 7 7 6 6 5 6 7 6 7 7 6 6 7 8 8 8 8 8 8 9 10 10 9 11 11 12
4 2 4 3 4 5 7 4 10 10 12 9 8 12 13 10 11 5 8 12 10 7 6 8 8 7 6 6 5 4 2 1 1 2 2 4 5 6 6 7 7 8 8 8 7 7 8 7 8 7 8 8 9 8 8 8 9 7 7 9 10 10 9 8 8 8 7 7 7 7 8 8 8 7 7 6 5 5 6 6 6 6 6 7 7 8 8 8 9 9 9 8 9 10 10 11 11
2 1 4 2 3 6 9 8 5 6 15 11 11 11 12 8 4 9 8 11 11 9 6 5 5 4 4 3 3 2 1 2 3 4 5 5 6 5 6 6 7 7 7 6 7 6 8 7 7 7 7 7 8 8 8 8 7 7 8 8 9 8 9 9 9 10 9 9 8 8 8 7 7 7 6 6 5 5 6 7 6 7 7 7 7 8 8 8 8 9 9 9 9 10 12 12 11
4 5 8 4 4 2 3 2 6 8 11 11 11 12 8 2 4 6 10 8 8 9 8 6 4 3 2 2 0 1 1 1 1 2 3 3 3 3 3 3 3 3 2 2 2 2 2 2 4 6 8 8 8 8 7 7 8 8 9 9 10 9 10 9 10 10 9 9 9 8 7 8 7 6 6 6 6 5 6 6 7 7 7 7 7 8 7 8 9 9 9 10 9 10 11 11 11
7 6 8 11 8 7 8 12 5 5 7 8 9 13 6 3 5 6 8 7 8 7 8 6 6 5 5 3 3 2 2 3 3 3 4 3 3 3 2 3 4 2 1 1 1 1 1 2 2 2 3 4 4 5 5 6 6 6 6 7 8 8 8 8 8 8 9 9 9 9 9 9 9 8 7 7 7 6 5 6 6 7 8 8 8 8 8 8 9 9 9 7 8 10 11 12 11
Wind_Direction
267 234 267 268 264 264 291 250 282 165 235 274 287 309 74 31 27 297 349 12 40 69 13 342 285 264 272 352 326 325 311 301 326 308 359 87 136 139 162 132 167 152 159 157 148 155 168 178 176 174 176 178 177 178 178 175 175 174 173 174 175 175 174 177 176 180 182 181 184 183 178 175 172 169 168 161 153 147 144 142 137 136 141 143 138 129 122 113 102 92 88 90 87 82 75 74 72
261 285 263 259 262 281 214 350 276 269 241 266 153 313 58 49 249 334 15 10 19 6 346 308 294 267 263 285 295 300 278 238 274 320 71 111 146 152 161 149 165 159 163 160 154 159 170 174 183 179 178 179 179 181 178 178 179 176 176 177 177 178 180 183 183 187 187 189 191 187 185 179 178 174 168 154 143 133 135 139 141 148 142 141 123 116 114 107 94 85 86 89 88 85 78 74 72
295 282 251 231 247 254 297 242 280 318 307 288 72 65 61 199 266 45 13 359 358 2 327 290 291 264 249 245 269 262 7 2 313 286 312 143 185 137 160 150 167 165 163 160 159 162 171 174 185 184 181 181 183 184 181 181 179 177 179 178 181 185 185 187 189 188 192 195 198 195 190 181 176 163 155 143 139 129 128 140 144 144 143 124 122 118 105 100 87 96 100 93 90 86 82 76 73
285 288 285 254 256 200 271 228 258 291 297 328 289 86 50 336 4 349 353 19 345 322 279 248 260 123 261 246 300 315 260 287 68 346 282 115 40 125 160 155 157 169 162 166 163 165 177 158 178 186 184 185 186 185 179 181 184 177 180 179 183 191 190 191 194 195 196 203 203 197 189 179 167 157 147 141 132 127 135 142 143 139 133 126 122 109 98 92 104 112 108 98 95 91 86 82 76
271 247 269 270 280 251 278 297 299 295 268 14 320 23 72 331 310 333 331 349 307 276 257 294 265 153 269 291 322 287 28 326 88 80 9 74 103 132 156 154 164 167 165 172 168 166 177 150 169 186 187 188 190 187 183 176 180 180 183 180 185 192 194 196 200 199 203 204 202 198 186 173 165 157 155 137 135 124 127 138 131 127 133 131 118 111 107 102 109 120 118 105 100 97 91 87 83
257 257 204 261 274 9 270 256 223 228 275 329 288 320 351 2 330 344 315 313 334 270 240 242 276 320 213 217 214 248 20 320 70 192 303 85 101 125 157 159 173 172 166 174 172 169 170 154 163 179 190 187 190 190 185 180 180 189 182 185 188 192 198 200 201 206 204 203 201 190 182 170 161 169 154 140 133 129 144 112 133 122 137 140 130 117 118 128 122 131 128 113 108 101 97 92 89
258 230 181 220 211 230 267 274 288 304 21 54 294 301 322 324 337 324 309 310 121 208 182 224 298 264 257 212 204 240 261 57 275 65 30 112 120 168 153 173 176 178 167 172 175 175 148 156 162 172 192 186 189 188 187 185 183 188 189 190 190 194 200 203 203 207 203 199 195 186 174 171 173 164 151 148 131 135 162 155 169 175 213 200 170 166 164 156 145 152 151 118 108 100 96 92 88
276 279 119 248 216 200 239 260 275 275 337 36 322 295 295 316 324 308 304 303 152 250 171 235 226 283 297 110 303 102 95 170 98 115 119 130 121 157 168 177 181 181 173 172 173 172 133 157 165 174 188 186 189 185 187 187 190 188 191 194 194 198 202 204 206 205 200 193 180 179 177 174 177 164 152 139 134 140 130 228 215 209 173 223 209 217 201 182 172 164 162 111 102 98 94 91 87
224 258 70 265 252 202 271 264 282 257 280 271 273 269 275 285 306 306 289 281 288 258 221 214 202 251 94 226 260 128 127 126 131 101 119 122 149 159 178 186 185 179 173 174 171 168 144 148 167 173 188 188 186 185 186 186 191 190 193 194 196 201 203 203 205 202 191 181 175 182 175 176 169 165 156 171 167 158 170 251 243 222 195 224 225 218 207 178 178 170 151 108 103 97 94 93 89
213 257 202 263 317 270 258 259 249 60 306 326 293 298 301 298 290 284 298 288 315 306 224 50 209 235 300 300 302 201 129 147 130 148 161 153 155 168 178 188 189 178 174 175 173 176 154 147 166 178 185 185 184 183 182 188 190 189 193 193 199 200 204 198 202 192 175 174 178 184 179 177 176 167 162 177 184 194 199 217 240 232 227 229 223 214 198 193 182 173 134 111 104 100 98 94 93
236 188 311 271 238 264 271 306 329 297 269 297 268 267 309 327 303 280 270 292 279 285 113 160 217 237 258 272 278 88 118 135 158 154 160 152 163 172 179 182 187 182 177 176 176 175 159 162 167 182 186 183 178 181 184 186 190 190 190 191 198 192 196 195 194 183 181 181 182 186 185 181 186 184 170 176 197 179 204 217 225 227 221 220 212 206 192 196 184 172 125 114 108 107 103 100 95
249 218 186 269 282 300 321 319 314 297 306 290 271 99 91 67 261 255 230 273 26 252 260 158 352 352 272 268 269 142 130 136 135 99 132 145 173 174 184 171 183 184 179 179 179 177 176 179 172 176 191 182 180 180 184 186 189 188 189 189 193 187 190 191 185 185 189 190 191 191 192 185 186 186 178 192 209 200 208 214 216 217 210 210 206 202 190 186 187 148 122 117 118 114 110 105 99
276 323 256 268 290 297 326 293 290 320 286 250 91 102 95 208 244 306 315 305 285 289 279 182 16 279 271 283 331 132 164 113 96 111 131 162 160 163 188 172 179 184 179 181 183 186 187 182 187 185 183 182 180 183 185 188 189 187 189 189 190 185 187 186 185 186 189 192 190 196 196 195 185 188 203 213 180 215 222 220 208 206 204 207 200 198 191 195 184 138 128 129 127 122 117 111 104
268 291 304 284 341 275 277 293 290 284 305 68 74 120 190 252 246 306 311 286 289 280 54 8 262 305 277 274 266 242 108 105 115 118 137 140 140 163 177 173 178 186 184 185 188 190 189 190 189 192 184 185 185 187 194 193 189 190 190 187 189 189 191 190 189 188 189 196 194 197 210 191 181 195 183 173 176 199 212 219 216 209 207 205 203 200 197 191 167 139 138 136 133 126 118 112 105
263 328 272 271 284 276 256 264 328 321 292 341 107 169 191 222 269 264 277 297 297 63 107 230 261 154 303 289 305 71 112 124 124 126 128 129 142 159 177 177 178 193 190 192 193 195 194 195 190 196 196 194 197 194 194 196 201 195 194 194 194 196 194 194 192 192 193 196 194 192 174 175 171 152 148 153 149 174 154 196 244 210 208 203 201 197 190 181 157 145 145 142 134 127 119 110 103
275 276 250 275 274 278 242 242 252 274 283 360 109 112 245 258 192 245 290 310 298 300 227 265 181 238 277 285 300 95 121 136 136 140 137 142 156 167 180 192 197 195 200 197 199 200 196 195 197 196 198 201 202 200 203 199 197 204 198 196 199 202 197 193 192 191 196 192 172 147 142 137 140 136 135 139 137 140 141 196 187 230 208 203 199 190 186 180 157 152 151 144 136 127 114 103 98
258 262 259 244 262 245 218 269 239 283 352 325 131 180 270 304 143 265 65 284 281 285 267 240 225 227 251 258 301 130 132 126 143 145 148 160 171 187 186 195 200 197 200 204 203 199 200 198 199 199 199 202 203 205 208 209 195 194 201 201 201 202 200 194 184 177 178 172 152 145 145 161 171 157 153 166 128 155 150 177 167 213 206 203 191 189 179 181 160 158 155 146 139 124 111 102 100
213 226 242 257 263 270 287 275 292 305 294 304 259 196 290 290 215 170 189 248 242 268 270 270 245 240 246 253 222 139 148 155 164 169 184 186 187 193 193 196 195 200 196 200 206 204 198 200 199 201 200 202 203 205 207 204 198 185 204 201 202 199 201 199 184 185 173 178 154 151 175 188 191 181 178 187 166 175 157 168 169 198 203 186 180 185 179 181 165 162 156 149 138 126 128 126 110
217 251 256 264 273 299 332 289 292 296 285 303 302 290 268 278 299 297 289 277 281 278 270 265 254 247 245 248 231 175 173 185 182 207 211 207 202 213 203 192 199 200 195 198 200 203 203 200 201 202 202 200 204 204 206 212 202 181 204 212 205 205 202 198 202 195 194 196 179 185 194 205 204 211 205 188 210 183 174 165 169 193 199 162 163 181 185 174 164 158 151 145 141 150 187 161 144
228 257 262 259 262 272 272 285 289 285 294 289 298 300 296 280 280 282 259 278 279 267 272 277 267 267 253 237 231 227 204 215 206 215 227 228 225 226 224 211 200 204 202 195 196 197 199 200 201 203 201 199 201 203 204 208 211 199 199 211 208 199 210 201 208 204 208 206 192 199 202 204 200 206 143 149 154 170 159 161 166 181 159 138 152 170 176 167 159 151 146 142 152 198 203 172 144
192 229 245 262 295 303 280 292 288 288 295 294 292 297 284 278 278 237 255 275 261 261 257 263 272 276 286 300 311 277 214 220 220 219 230 234 234 232 234 229 218 204 203 194 193 192 197 199 198 202 201 199 199 201 203 208 209 211 206 209 211 211 209 208 211 211 210 210 210 215 213 207 204 200 152 160 183 185 175 184 175 180 171 169 155 187 178 164 163 159 150 179 198 199 200 175 155
290 243 256 272 278 267 274 283 315 311 354 286 283 280 275 298 248 242 249 254 259 265 280 285 288 294 302 304 304 301 230 234 236 229 226 228 230 232 233 237 234 224 193 197 195 194 195 198 197 196 198 200 199 200 200 204 206 210 207 205 208 212 208 209 211 208 210 206 208 210 208 206 205 196 175 188 195 185 179 183 183 186 184 189 179 190 184 169 184 172 175 194 196 189 191 166 165
253 254 250 254 263 274 288 289 327 301 282 278 279 276 292 273 272 262 256 247 255 259 272 280 284 289 290 292 286 269 246 248 254 252 245 239 234 235 237 237 233 221 204 205 200 199 193 196 198 195 196 197 200 200 201 202 206 211 209 205 204 206 204 207 203 204 203 196 201 202 203 202 202 197 178 189 193 188 186 183 181 185 182 185 185 193 183 173 185 174 179 185 186 174 162 133 105
250 272 282 283 289 274 283 286 137 262 263 266 274 290 277 273 274 276 262 256 256 263 265 271 278 283 287 283 274 264 256 254 254 254 252 249 243 236 230 235 237 232 216 211 207 203 193 194 195 196 197 195 197 199 202 205 207 208 207 204 202 205 203 203 200 198 194 195 197 200 201 199 197 193 182 186 189 192 191 185 183 185 183 185 183 195 176 177 181 175 174 172 167 163 157 149 136
248 262 262 268 273 277 280 278 271 263 258 268 278 276 267 266 273 288 271 269 266 265 266 269 272 277 279 277 272 264 260 258 253 251 249 244 242 243 237 234 236 235 233 221 210 207 201 192 193 197 197 197 195 196 202 204 205 205 208 205 200 198 204 199 197 194 193 194 197 201 199 197 193 189 186 185 185 191 187 187 185 186 179 181 182 187 176 178 179 172 168 168 173 171 157 161 144
249 253 277 289 283 280 279 279 265 252 263 259 264 259 265 269 282 271 270 268 262 262 267 268 271 271 271 273 271 266 261 260 259 255 250 244 234 238 235 226 225 227 227 226 213 209 205 193 195 197 196 196 194 194 199 205 205 202 204 204 202 195 202 198 194 193 192 196 201 204 200 197 187 187 184 184 185 187 187 187 185 181 180 179 180 183 179 178 178 170 169 170 172 168 168 157 155
35 297 297 290 286 287 279 273 270 260 260 253 244 261 268 280 279 277 267 280 287 254 259 269 274 275 276 274 272 267 264 260 261 264 263 246 237 227 234 224 222 227 225 224 219 211 202 198 198 196 197 193 192 194 196 203 202 204 202 201 200 199 197 198 196 194 193 199 205 204 198 192 186 186 184 183 185 185 188 185 187 181 181 178 178 178 174 180 176 175 171 171 172 171 165 147 166
294 310 302 282 279 273 271 268 264 258 261 252 244 256 276 279 265 258 277 268 261 265 272 282 284 282 282 278 271 269 265 260 257 256 256 253 236 227 231 221 222 222 218 222 218 209 200 201 197 197 196 192 193 196 194 198 201 203 201 203 203 200 194 196 196 196 198 200 206 197 191 187 187 186 184 182 184 182 186 184 185 185 183 176 176 174 166 177 173 171 163 176 170 168 143 147 148
289 305 289 284 284 281 269 262 263 247 246 259 227 263 267 259 236 251 252 263 265 263 265 274 278 281 283 281 276 267 261 259 249 240 240 240 238 234 240 223 220 220 217 218 213 206 206 200 199 199 196 193 194 196 193 195 196 198 200 202 201 194 196 196 197 197 196 197 200 192 187 187 187 185 184 183 182 183 184 182 185 186 183 172 172 163 155 163 163 148 145 138 155 151 139 131 126
290 266 269 286 280 271 273 263 254 246 216 130 161 272 246 267 251 247 258 264 260 252 268 277 281 283 283 281 277 274 271 269 265 257 251 242 234 232 243 243 233 224 220 207 204 208 205 197 197 196 197 198 195 197 195 193 195 195 197 201 199 195 197 199 201 201 198 198 200 191 187 187 188 186 184 181 179 184 184 184 184 182 181 167 163 151 159 168 170 161 157 171 168 166 156 147 156
264 282 262 263 285 268 276 215 137 212 139 167 201 262 268 273 278 287 307 343 269 269 285 289 287 284 280 275 270 270 269 266 269 275 276 269 246 236 237 251 250 242 228 217 197 204 202 196 186 196 190 201 192 201 199 197 193 192 194 196 197 192 195 200 203 203 200 198 198 193 187 187 186 185 182 178 181 186 183 183 184 180 175 164 162 162 167 172 177 170 165 179 165 179 162 153 163
259 280 247 240 240 267 275 251 182 248 151 204 184 261 262 255 271 289 306 212 270 277 282 284 282 280 278 274 271 269 270 272 278 283 282 277 276 266 259 260 256 252 249 235 219 203 211 203 187 192 189 197 197 198 200 198 195 193 195 194 197 191 195 200 200 202 202 198 201 197 187 187 185 185 183 181 179 188 187 186 185 180 171 164 166 162 172 173 176 173 175 179 167 177 161 158 167
244 241 265 264 268 281 288 254 242 243 131 192 201 263 290 281 285 297 300 298 292 285 283 279 276 278 277 273 270 270 273 279 283 283 281 287 281 278 277 275 273 260 252 252 237 224 216 211 193 196 192 196 200 197 200 200 199 198 197 194 199 192 196 200 200 200 201 198 203 198 187 184 181 185 185 182 181 187 191 190 185 180 167 167 166 164 175 177 172 171 175 186 179 168 164 159 162
256 242 256 254 272 289 277 310 297 67 176 254 213 246 258 277 284 286 285 285 289 288 282 277 276 277 277 275 272 272 274 285 289 295 313 313 306 310 309 315 310 301 282 261 253 242 230 217 202 193 196 196 200 197 198 199 200 201 202 198 196 197 198 197 199 199 201 200 202 200 183 182 180 186 185 182 185 187 192 191 185 175 163 167 168 168 178 178 174 173 171 181 181 169 169 164 165
276 290 286 279 263 262 285 289 276 252 224 251 272 262 270 275 274 265 272 274 272 277 279 277 282 284 282 276 272 274 283 284 310 351 338 331 336 334 336 337 344 340 312 293 248 244 234 217 202 186 193 197 199 199 193 196 200 204 204 203 197 202 198 199 196 199 200 201 206 198 181 181 179 187 184 182 186 188 191 191 186 170 164 169 169 171 176 182 177 180 175 168 179 178 170 166 165
278 286 295 290 286 285 286 290 293 297 294 290 284 281 291 295 294 289 286 282 280 275 276 290 292 282 270 270 277 283 292 338 14 352 2 10 8 1 357 1 1 358 350 342 334 282 236 216 200 181 193 201 200 198 189 193 196 201 201 203 208 207 205 200 202 203 200 205 202 195 184 182 180 186 186 184 187 188 189 190 185 162 167 171 174 177 181 182 179 177 179 166 166 161 175 160 152
280 282 275 274 278 280 281 278 287 293 300 273 281 289 294 297 296 290 278 272 268 272 280 280 277 275 280 278 283 347 38 351 8 33 47 38 28 19 19 21 15 24 24 11 4 357 323 263 198 206 188 198 194 194 195 195 196 200 207 211 213 208 210 209 207 209 209 208 203 197 186 184 183 183 187 185 189 189 191 189 183 163 169 180 184 186 185 185 177 176 167 168 164 153 165 162 151
276 280 280 279 277 280 279 287 294 291 287 287 292 290 293 301 297 280 273 272 270 266 269 266 267 278 296 338 59 45 348 59 67 62 51 45 35 31 31 32 28 31 26 25 25 13 8 356 317 280 200 196 203 199 194 198 204 206 205 213 215 215 206 207 214 210 213 212 209 201 193 187 184 184 187 187 188 192 193 192 185 168 174 184 189 188 185 179 174 176 165 158 181 171 171 169 160
276 272 277 281 277 284 284 279 283 309 342 283 300 299 298 289 277 279 283 271 258 254 249 256 269 310 33 59 303 331 61 77 64 55 47 40 35 28 25 25 29 28 24 28 25 28 31 20 10 340 328 237 216 213 204 206 209 215 220 224 215 218 220 222 218 217 207 210 205 201 197 189 187 185 183 187 190 195 196 194 189 172 178 180 182 186 184 183 176 178 177 171 168 189 173 170 172
261 261 260 262 283 286 294 280 115 229 237 299 303 297 289 271 266 276 277 214 237 247 248 255 16 65 334 350 29 60 78 59 55 46 39 33 31 28 24 22 21 22 21 21 24 30 33 26 17 7 355 342 313 233 239 242 231 215 210 240 218 225 230 207 213 212 208 205 208 200 201 198 193 189 184 185 189 196 200 201 193 181 181 183 185 186 185 185 177 180 183 185 168 164 188 181 192
249 247 259 275 271 272 283 301 304 306 294 284 301 285 284 270 152 169 210 235 245 255 264 148 90 90 86 70 72 58 59 55 49 43 36 29 28 27 23 20 18 23 21 22 23 28 30 29 23 17 13 5 354 353 268 272 218 177 164 121 94 180 227 185 187 211 205 202 207 203 205 198 196 195 190 190 190 194 200 205 203 194 185 188 189 192 189 187 182 186 182 184 184 179 185 167 191
271 263 261 262 272 286 293 302 315 308 294 81 344 317 306 139 211 318 304 300 279 289 103 112 90 93 83 85 73 64 58 53 52 47 42 37 31 28 23 19 19 18 19 16 20 31 35 33 28 26 31 26 16 7 354 300 266 251 225 222 232 232 242 230 231 228 213 212 215 215 210 205 202 203 201 197 196 193 197 198 200 197 191 190 199 204 199 186 187 184 186 190 192 198 182 158 184
272 282 320 288 293 299 301 301 306 288 297 103 47 325 288 251 274 272 273 263 257 289 90 70 79 72 58 53 58 53 43 45 46 48 44 39 32 27 25 19 15 15 12 8 14 25 38 41 35 32 33 32 34 10 7 335 306 291 279 272 279 278 275 265 253 246 241 229 217 212 207 204 207 206 207 204 201 200 201 201 201 201 193 193 197 203 205 199 189 191 184 194 195 193 184 190 181
261 35 338 340 310 300 305 307 281 273 285 282 260 220 267 288 274 250 223 249 286 64 76 87 79 68 67 59 53 54 49 38 40 41 40 41 36 33 25 20 16 12 5 6 9 16 30 36 39 35 34 35 31 18 22 12 336 333 318 301 290 286 286 293 307 302 260 251 223 206 202 202 203 210 213 212 209 204 202 205 206 204 203 200 197 205 209 206 189 192 195 196 196 197 196 196 185
287 37 15 351 335 307 299 287 282 284 302 296 186 204 255 255 293 161 247 259 78 72 80 71 60 59 64 60 52 49 51 49 38 35 35 35 33 30 28 25 19 15 11 8 9 11 22 31 35 34 34 33 22 26 23 21 8 344 334 323 311 308 305 302 303 306 285 243 227 207 209 204 200 207 214 215 211 211 204 209 208 205 204 206 202 207 211 212 204 187 191 192 200 200 202 204 196
95 279 32 254 259 233 258 268 280 287 287 272 231 192 253 287 296 215 135 158 97 97 95 79 66 48 39 51 55 52 44 41 38 34 34 33 29 29 29 29 28 22 15 12 13 17 26 29 31 30 30 29 23 24 22 25 21 7 347 339 326 318 319 316 316 313 310 294 246 226 218 216 210 204 211 216 215 214 212 208 212 211 208 208 206 208 211 216 214 207 199 201 205 208 207 208 209
64 324 291 271 248 247 234 244 262 273 255 264 244 196 228 293 296 308 122 72 116 121 106 96 99 88 59 43 42 42 48 44 36 29 27 30 27 26 22 28 26 25 21 17 16 25 31 31 28 31 26 23 22 23 22 22 25 20 11 351 338 325 320 311 306 308 312 308 293 276 247 235 221 212 205 210 215 215 217 213 214 215 215 212 212 212 209 208 204 203 200 205 208 210 211 208 212
278 271 281 303 275 221 247 238 201 249 269 23 31 183 222 240 99 119 83 78 81 112 126 101 82 81 81 73 58 46 41 37 42 40 29 20 17 17 18 16 15 15 19 20 20 24 29 28 26 29 27 23 21 19 21 22 18 19 15 5 344 332 321 312 309 307 303 296 294 290 287 264 243 228 214 214 213 214 213 217 217 220 218 217 217 215 212 212 212 205 198 195 205 211 218 214 216
215 245 252 268 291 248 255 176 218 217 254 116 47 24 253 239 252 304 307 77 78 69 106 115 109 91 78 70 59 58 51 48 43 44 40 28 20 12 11 10 10 13 16 20 21 22 25 26 24 26 25 21 20 20 21 22 24 18 13 5 359 345 330 319 312 313 313 305 301 290 278 273 266 247 229 222 222 212 209 214 215 216 220 220 220 219 218 215 217 213 208 205 207 208 212 214 216
200 219 231 251 270 261 266 275 277 270 139 136 105 78 272 272 273 255 246 81 83 94 92 94 95 98 96 90 77 66 66 58 53 52 50 38 27 18 10 8 12 16 19 23 22 23 24 25 24 27 26 22 21 21 20 21 22 19 14 12 358 350 342 332 326 329 330 319 313 305 296 285 278 268 262 242 230 214 211 216 219 222 223 224 222 223 223 218 217 222 212 212 210 213 212 217 223
196 200 197 236 263 274 283 279 275 292 310 329 194 324 249 326 14 86 104 101 99 86 88 93 94 86 81 81 80 80 75 66 61 55 46 40 32 24 12 9 16 23 25 23 21 22 25 25 23 24 23 21 22 22 21 23 21 18 15 11 8 360 353 341 336 340 337 331 323 314 304 297 290 288 283 274 247 225 216 219 219 224 225 226 224 223 222 224 219 223 223 219 215 212 217 219 224
183 176 39 215 230 101 247 263 279 289 298 294 242 221 278 281 100 114 106 104 95 100 94 95 90 90 88 78 67 66 61 57 53 56 47 42 31 14 4 11 24 30 28 27 23 21 22 20 23 27 24 19 19 20 23 23 21 19 16 12 8 3 355 348 341 344 342 335 326 317 308 302 297 295 290 287 270 236 223 222 224 224 225 227 227 225 223 223 217 222 229 226 224 216 220 220 224
118 146 211 226 76 155 278 257 231 265 263 254 246 264 260 250 251 147 120 106 105 102 102 94 93 90 89 82 72 60 59 51 50 51 52 39 33 26 22 21 24 28 27 28 26 22 22 20 20 22 22 21 19 18 17 18 19 21 21 18 13 8 5 357 349 347 344 339 329 318 308 306 302 296 293 292 283 253 231 224 228 229 227 227 227 225 223 225 223 226 228 228 230 223 223 223 222
109 203 204 64 38 355 237 268 253 221 245 269 260 267 273 264 289 133 131 117 122 105 102 102 102 112 95 82 67 62 64 74 70 74 83 71 62 47 43 38 33 31 27 29 28 23 20 22 21 23 20 16 12 12 12 13 13 11 10 13 12 14 12 7 2 356 350 343 337 328 321 314 312 310 305 299 290 279 268 244 235 229 231 231 229 228 224 221 222 227 228 231 231 224 228 232 227
267 269 9 287 241 240 207 228 251 253 255 269 235 272 265 257 248 167 167 137 128 110 106 113 108 103 103 99 90 86 82 97 89 65 55 38 29 23 27 32 41 40 35 30 23 23 26 28 23 28 28 24 17 11 7 11 14 11 5 5 6 5 8 11 7 7 3 356 347 335 325 318 313 308 305 301 289 279 273 262 251 242 231 227 230 233 229 227 218 224 223 230 228 229 233 232 230
127 331 269 195 301 253 264 242 259 252 268 270 264 242 265 257 329 305 166 129 126 125 117 98 105 104 109 114 127 140 130 49 23 19 19 15 12 1 358 4 14 19 21 14 8 13 20 15 15 20 21 23 22 18 15 11 10 10 6 3 4 4 4 6 8 9 8 2 353 342 331 324 319 316 308 303 293 284 279 274 261 251 241 234 231 229 230 231 227 227 224 223 221 220 232 236 234
185 225 245 220 218 359 298 308 247 244 259 247 268 258 260 297 7 48 88 102 117 135 134 136 131 134 130 141 221 75 30 348 307 280 264 266 268 282 286 289 301 294 288 298 301 319 316 334 9 14 16 9 12 13 8 6 0 3 6 7 3 2 359 1 3 7 3 1 353 345 339 330 320 315 315 306 297 288 283 278 273 264 252 244 238 235 228 231 231 232 227 226 225 221 226 233 234
276 234 232 232 232 228 241 246 200 227 225 241 249 256 243 90 13 56 82 88 88 98 121 133 159 161 163 159 166 197 183 195 211 222 229 235 223 240 257 242 240 258 307 317 295 242 321 5 13 6 16 12 7 356 2 350 353 359 6 1 358 356 357 357 3 5 2 354 347 347 344 338 333 327 325 317 314 307 301 293 284 279 271 257 242 236 233 231 232 234 232 227 227 226 229 229 229